| time (UTC) | temp F | wind direction | speed knots | gust knots | rain 1hr in | rain 24hr in | rain mn in | humidity % | barometer mb |
| 20260506221527 | 74 | 230 | 3.5 | 7.0 | 0.00 | 0.00 | 0.00 | 53 | 1020.7 |
| 20260506221024 | 75 | 94 | 1.7 | 5.2 | 0.00 | 0.00 | 0.00 | 51 | 1020.7 |
| 20260506220520 | 74 | 204 | 4.3 | 5.2 | 0.00 | 0.00 | 0.00 | 51 | 1020.7 |
| 20260506220016 | 73 | 203 | 2.6 | 5.2 | 0.00 | 0.00 | 0.00 | 53 | 1020.7 |
| 20260506215513 | 73 | 261 | 4.3 | 7.0 | 0.00 | 0.00 | 0.00 | 54 | 1020.6 |
| 20260506215009 | 72 | 202 | 5.2 | 7.0 | 0.00 | 0.00 | 0.00 | 54 | 1020.8 |
| 20260506214506 | 72 | 260 | 1.7 | 7.8 | 0.00 | 0.00 | 0.00 | 57 | 1020.9 |
| 20260506214003 | 72 | 229 | 1.7 | 7.0 | 0.00 | 0.00 | 0.00 | 55 | 1020.9 |
| 20260506213501 | 71 | 189 | 5.2 | 7.0 | 0.00 | 0.00 | 0.00 | 55 | 1020.9 |
| 20260506212958 | 72 | 166 | 4.3 | 7.0 | 0.00 | 0.00 | 0.00 | 55 | 1021.1 |
| 20260506212454 | 70 | 286 | 2.6 | 6.1 | 0.00 | 0.00 | 0.00 | 58 | 1021.0 |
| 20260506211949 | 71 | 247 | 4.3 | 6.1 | 0.00 | 0.00 | 0.00 | 56 | 1021.0 |
| 20260506211445 | 72 | 256 | 4.3 | 6.1 | 0.00 | 0.00 | 0.00 | 55 | 1021.4 |
| 20260506210942 | 71 | 206 | 1.7 | 6.1 | 0.00 | 0.00 | 0.00 | 57 | 1021.2 |
| 20260506210439 | 70 | 240 | 4.3 | 8.7 | 0.00 | 0.00 | 0.00 | 59 | 1021.3 |
| 20260506205936 | 69 | 227 | 5.2 | 8.7 | 0.00 | 0.00 | 0.00 | 59 | 1021.0 |
| 20260506205432 | 69 | 210 | 4.3 | 8.7 | 0.00 | 0.00 | 0.00 | 60 | 1021.1 |
| 20260506204928 | 70 | 236 | 6.1 | 7.0 | 0.00 | 0.00 | 0.00 | 58 | 1021.2 |
| 20260506204427 | 70 | 204 | 3.5 | 5.2 | 0.00 | 0.00 | 0.00 | 57 | 1021.3 |
| 20260506203924 | 71 | 196 | 4.3 | 6.1 | 0.00 | 0.00 | 0.00 | 57 | 1021.3 |
| 20260506203421 | 71 | 253 | 3.5 | 7.8 | 0.00 | 0.00 | 0.00 | 57 | 1021.3 |
| 20260506202918 | 69 | 276 | 1.7 | 5.2 | 0.00 | 0.00 | 0.00 | 59 | 1021.4 |
| 20260506202414 | 70 | 266 | 6.1 | 11.3 | 0.00 | 0.00 | 0.00 | 57 | 1021.3 |
| 20260506201911 | 69 | 230 | 3.5 | 7.0 | 0.00 | 0.00 | 0.00 | 59 | 1021.4 |
| 20260506201409 | 70 | 298 | 2.6 | 5.2 | 0.00 | 0.00 | 0.00 | 56 | 1021.2 |
| 20260506200905 | 70 | 170 | 2.6 | 7.8 | 0.00 | 0.00 | 0.00 | 58 | 1021.2 |
| 20260506200401 | 70 | 196 | 4.3 | 6.1 | 0.00 | 0.00 | 0.00 | 57 | 1021.3 |
| 20260506195857 | 70 | 234 | 5.2 | 9.6 | 0.00 | 0.00 | 0.00 | 58 | 1021.4 |
| 20260506195355 | 70 | 258 | 6.1 | 7.8 | 0.00 | 0.00 | 0.00 | 56 | 1021.5 |
| 20260506194852 | 71 | 108 | 2.6 | 7.8 | 0.00 | 0.00 | 0.00 | 57 | 1021.4 |
| 20260506194349 | 70 | 197 | 4.3 | 7.8 | 0.00 | 0.00 | 0.00 | 56 | 1021.2 |
| 20260506193846 | 69 | 210 | 2.6 | 7.0 | 0.00 | 0.00 | 0.00 | 59 | 1021.5 |
| 20260506193343 | 69 | 215 | 4.3 | 7.8 | 0.00 | 0.00 | 0.00 | 58 | 1021.5 |
| 20260506192839 | 69 | 196 | 2.6 | 6.1 | 0.00 | 0.00 | 0.00 | 57 | 1021.5 |
| 20260506192335 | 68 | 200 | 5.2 | 7.0 | 0.00 | 0.00 | 0.00 | 60 | 1021.5 |
| 20260506191832 | 68 | 225 | 7.8 | 9.6 | 0.00 | 0.00 | 0.00 | 60 | 1021.3 |
| 20260506191329 | 68 | 200 | 4.3 | 9.6 | 0.00 | 0.00 | 0.00 | 60 | 1021.6 |
| 20260506190826 | 68 | 215 | 4.3 | 9.6 | 0.00 | 0.00 | 0.00 | 61 | 1021.7 |
| 20260506190322 | 68 | 206 | 2.6 | 8.7 | 0.00 | 0.00 | 0.00 | 61 | 1021.6 |
| 20260506185820 | 68 | 179 | 2.6 | 7.8 | 0.00 | 0.00 | 0.00 | 62 | 1021.8 |
| 20260506185317 | 68 | 192 | 6.1 | 11.3 | 0.00 | 0.00 | 0.00 | 61 | 1021.7 |
| 20260506184813 | 68 | 265 | 2.6 | 6.1 | 0.00 | 0.00 | 0.00 | 59 | 1021.9 |
| 20260506184311 | 67 | 220 | 6.1 | 7.0 | 0.00 | 0.00 | 0.00 | 61 | 1021.6 |
| 20260506183808 | 66 | 183 | 6.1 | 7.8 | 0.00 | 0.00 | 0.00 | 62 | 1021.9 |
| 20260506183303 | 67 | 211 | 6.1 | 7.8 | 0.00 | 0.00 | 0.00 | 62 | 1021.9 |
| 20260506182801 | 66 | 275 | 4.3 | 7.0 | 0.00 | 0.00 | 0.00 | 64 | 1021.8 |
| 20260506182257 | 66 | 226 | 5.2 | 8.7 | 0.00 | 0.00 | 0.00 | 63 | 1022.0 |
| 20260506181755 | 67 | 195 | 5.2 | 7.0 | 0.00 | 0.00 | 0.00 | 62 | 1022.1 |
| 20260506181253 | 67 | 218 | 4.3 | 7.0 | 0.00 | 0.00 | 0.00 | 60 | 1022.1 |
| 20260506180750 | 66 | 215 | 4.3 | 6.1 | 0.00 | 0.00 | 0.00 | 61 | 1022.1 |
| 20260506180245 | 66 | 172 | 3.5 | 6.1 | 0.00 | 0.00 | 0.00 | 62 | 1022.0 |
| 20260506175742 | 65 | 233 | 5.2 | 7.8 | 0.00 | 0.00 | 0.00 | 63 | 1022.2 |
| 20260506175239 | 65 | 191 | 4.3 | 7.0 | 0.00 | 0.00 | 0.00 | 63 | 1022.2 |
| 20260506174737 | 65 | 258 | 5.2 | 7.8 | 0.00 | 0.00 | 0.00 | 62 | 1022.0 |
| 20260506174233 | 64 | 201 | 2.6 | 5.2 | 0.00 | 0.00 | 0.00 | 64 | 1022.3 |
| 20260506173732 | 64 | 238 | 5.2 | 7.8 | 0.00 | 0.00 | 0.00 | 64 | 1022.1 |
| 20260506173228 | 63 | 214 | 4.3 | 6.1 | 0.00 | 0.00 | 0.00 | 66 | 1022.1 |
| 20260506172724 | 63 | 245 | 5.2 | 7.0 | 0.00 | 0.00 | 0.00 | 67 | 1022.3 |
| 20260506172221 | 64 | 210 | 5.2 | 7.0 | 0.00 | 0.00 | 0.00 | 67 | 1022.3 |
| 20260506171718 | 64 | 185 | 6.1 | 7.8 | 0.00 | 0.00 | 0.00 | 66 | 1022.1 |
| 20260506171216 | 63 | 183 | 4.3 | 6.1 | 0.00 | 0.00 | 0.00 | 68 | 1022.2 |
| 20260506170713 | 63 | 236 | 5.2 | 7.0 | 0.00 | 0.00 | 0.00 | 69 | 1022.2 |
| 20260506170210 | 64 | 242 | 4.3 | 6.1 | 0.00 | 0.00 | 0.00 | 68 | 1022.0 |
| 20260506165709 | 64 | 246 | 4.3 | 7.8 | 0.00 | 0.00 | 0.00 | 67 | 1022.2 |
| 20260506165204 | 64 | 210 | 2.6 | 7.0 | 0.00 | 0.00 | 0.00 | 68 | 1021.9 |
| 20260506164702 | 64 | 208 | 1.7 | 7.0 | 0.00 | 0.00 | 0.00 | 68 | 1022.0 |
| 20260506164159 | 64 | 193 | 6.1 | 7.0 | 0.00 | 0.00 | 0.00 | 66 | 1022.2 |
| 20260506163655 | 65 | 212 | 2.6 | 6.1 | 0.00 | 0.00 | 0.00 | 66 | 1021.9 |
| 20260506163151 | 66 | 214 | 3.5 | 5.2 | 0.00 | 0.00 | 0.00 | 63 | 1022.0 |
| 20260506162647 | 65 | 210 | 1.7 | 2.6 | 0.00 | 0.00 | 0.00 | 65 | 1022.0 |
| 20260506162145 | 65 | 200 | 2.6 | 2.6 | 0.00 | 0.00 | 0.00 | 65 | 1022.2 |
| 20260506161642 | 65 | 192 | 2.6 | 2.6 | 0.00 | 0.00 | 0.00 | 64 | 1022.0 |
| 20260506161138 | 64 | 200 | 1.7 | 2.6 | 0.00 | 0.00 | 0.00 | 66 | 1022.1 |
| 20260506160636 | 64 | 264 | 0.9 | 2.6 | 0.00 | 0.00 | 0.00 | 66 | 1022.1 |
| 20260506160133 | 65 | 240 | 1.7 | 2.6 | 0.00 | 0.00 | 0.00 | 65 | 1022.4 |
| 20260506155631 | 62 | 69 | 0.0 | 0.9 | 0.00 | 0.00 | 0.00 | 69 | 1022.3 |
| 20260506155128 | 64 | 207 | 1.7 | 1.7 | 0.00 | 0.00 | 0.00 | 67 | 1022.2 |
| 20260506153224 | 63 | 164 | 0.9 | 1.7 | 0.00 | 0.00 | 0.00 | 68 | 1022.4 |
| 20260506152721 | 61 | 282 | 0.9 | 4.3 | 0.00 | 0.00 | 0.00 | 72 | 1022.4 |
| 20260506152219 | 61 | 157 | 0.0 | 1.7 | 0.00 | 0.00 | 0.00 | 73 | 1022.5 |
| 20260506151718 | 61 | 159 | 0.0 | 1.7 | 0.00 | 0.00 | 0.00 | 73 | 1022.4 |
| 20260506151214 | 61 | 223 | 1.7 | 2.6 | 0.00 | 0.00 | 0.00 | 72 | 1022.4 |
| 20260506150710 | 61 | 209 | 1.7 | 2.6 | 0.00 | 0.00 | 0.00 | 70 | 1022.5 |
| 20260506150207 | 61 | 27 | 0.0 | 0.9 | 0.00 | 0.00 | 0.00 | 70 | 1022.3 |
| 20260506145704 | 60 | 27 | 0.0 | 0.9 | 0.00 | 0.00 | 0.00 | 73 | 1022.4 |
| 20260506145201 | 59 | 27 | 0.0 | 0.9 | 0.00 | 0.00 | 0.00 | 73 | 1022.6 |
| 20260506144659 | 59 | 27 | 0.0 | 2.6 | 0.00 | 0.00 | 0.00 | 74 | 1022.4 |
| 20260506144155 | 58 | 51 | 0.0 | 0.9 | 0.00 | 0.00 | 0.00 | 77 | 1022.5 |
| 20260506143653 | 57 | 66 | 0.0 | 1.7 | 0.00 | 0.00 | 0.00 | 77 | 1022.3 |
| 20260506143150 | 56 | 57 | 0.0 | 0.9 | 0.00 | 0.00 | 0.00 | 81 | 1022.4 |
| 20260506142649 | 56 | 33 | 0.9 | 1.7 | 0.00 | 0.00 | 0.00 | 81 | 1022.4 |
| 20260506142146 | 56 | 52 | 0.0 | 0.9 | 0.00 | 0.00 | 0.00 | 82 | 1022.1 |
| 20260506141644 | 56 | 62 | 0.0 | 0.0 | 0.00 | 0.00 | 0.00 | 79 | 1022.2 |
| 20260506141142 | 55 | 62 | 0.0 | 0.0 | 0.00 | 0.00 | 0.00 | 81 | 1022.3 |
| 20260506140639 | 54 | 62 | 0.0 | 0.9 | 0.00 | 0.00 | 0.00 | 82 | 1022.2 |
| 20260506140136 | 53 | 51 | 0.0 | 0.0 | 0.00 | 0.00 | 0.00 | 88 | 1022.1 |
| 20260506135633 | 53 | 53 | 0.0 | 0.0 | 0.00 | 0.00 | 0.00 | 87 | 1021.9 |
| 20260506135129 | 52 | 69 | 0.0 | 0.0 | 0.00 | 0.00 | 0.00 | 86 | 1022.1 |
| 20260506134626 | 51 | 54 | 0.0 | 0.0 | 0.00 | 0.00 | 0.00 | 89 | 1022.1 |
| 20260506134122 | 51 | 57 | 0.9 | 1.7 | 0.00 | 0.00 | 0.00 | 89 | 1022.1 |
| 20260506133619 | 50 | 52 | 0.0 | 0.0 | 0.00 | 0.00 | 0.00 | 92 | 1022.0 |
| 20260506133116 | 49 | 52 | 0.0 | 0.0 | 0.00 | 0.00 | 0.00 | 93 | 1022.0 |
| 20260506132614 | 49 | 52 | 0.0 | 0.0 | 0.00 | 0.00 | 0.00 | 94 | 1022.1 |
| 20260506132110 | 48 | 52 | 0.0 | 0.0 | 0.00 | 0.00 | 0.00 | 93 | 1021.9 |
| 20260506131608 | 48 | 67 | 0.0 | 0.0 | 0.00 | 0.00 | 0.00 | 92 | 1021.9 |
| 20260506131104 | 49 | 67 | 0.0 | 0.9 | 0.00 | 0.00 | 0.00 | 92 | 1021.8 |
| 20260506130601 | 49 | 67 | 0.0 | 0.0 | 0.00 | 0.00 | 0.00 | 93 | 1021.7 |
| 20260506130059 | 49 | 47 | 0.0 | 0.0 | 0.00 | 0.00 | 0.00 | 93 | 1021.6 |
| 20260506125557 | 49 | 46 | 0.0 | 0.9 | 0.00 | 0.00 | 0.00 | 93 | 1021.4 |
| 20260506125054 | 49 | 45 | 0.0 | 0.9 | 0.00 | 0.00 | 0.00 | 94 | 1021.4 |
| 20260506124552 | 49 | 24 | 1.7 | 4.3 | 0.00 | 0.00 | 0.00 | 94 | 1021.5 |
| 20260506124049 | 49 | 31 | 0.9 | 1.7 | 0.00 | 0.00 | 0.00 | 93 | 1021.5 |
| 20260506123547 | 49 | 32 | 0.0 | 0.9 | 0.00 | 0.00 | 0.00 | 94 | 1021.5 |
| 20260506123045 | 49 | 32 | 0.9 | 0.9 | 0.00 | 0.00 | 0.00 | 93 | 1021.4 |
| 20260506122541 | 49 | 32 | 0.0 | 0.9 | 0.00 | 0.00 | 0.00 | 93 | 1021.5 |
| 20260506122040 | 49 | 30 | 0.9 | 1.7 | 0.00 | 0.00 | 0.00 | 94 | 1021.4 |
| 20260506121537 | 49 | 37 | 0.9 | 1.7 | 0.00 | 0.00 | 0.00 | 93 | 1021.5 |
| 20260506121033 | 49 | 37 | 0.9 | 0.9 | 0.00 | 0.00 | 0.00 | 93 | 1021.6 |
| 20260506120531 | 49 | 32 | 0.9 | 0.9 | 0.00 | 0.00 | 0.00 | 93 | 1021.6 |
| 20260506120028 | 49 | 26 | 1.7 | 2.6 | 0.00 | 0.00 | 0.00 | 93 | 1021.7 |
| 20260506115526 | 49 | 27 | 0.9 | 1.7 | 0.00 | 0.00 | 0.00 | 93 | 1021.6 |
| 20260506115024 | 49 | 27 | 1.7 | 2.6 | 0.00 | 0.00 | 0.00 | 93 | 1021.6 |
| 20260506114521 | 50 | 41 | 0.0 | 0.9 | 0.00 | 0.00 | 0.00 | 93 | 1021.6 |
| 20260506114020 | 49 | 26 | 0.9 | 2.6 | 0.00 | 0.00 | 0.00 | 94 | 1021.7 |
| 20260506113517 | 49 | 23 | 2.6 | 2.6 | 0.00 | 0.00 | 0.00 | 95 | 1021.7 |
| 20260506113014 | 49 | 30 | 0.9 | 2.6 | 0.00 | 0.00 | 0.00 | 95 | 1021.5 |
| 20260506112511 | 49 | 33 | 0.0 | 0.9 | 0.00 | 0.00 | 0.00 | 95 | 1021.7 |
| 20260506112008 | 48 | 34 | 0.9 | 0.9 | 0.00 | 0.00 | 0.00 | 96 | 1021.8 |
| 20260506111506 | 48 | 37 | 0.0 | 0.0 | 0.00 | 0.00 | 0.00 | 95 | 1021.8 |
| 20260506111003 | 48 | 38 | 0.0 | 0.0 | 0.00 | 0.00 | 0.00 | 95 | 1021.6 |
| 20260506110501 | 48 | 37 | 0.0 | 0.0 | 0.00 | 0.00 | 0.00 | 95 | 1021.6 |
| 20260506105957 | 48 | 38 | 0.0 | 0.0 | 0.00 | 0.00 | 0.00 | 94 | 1021.7 |
| 20260506105453 | 49 | 38 | 0.0 | 0.0 | 0.00 | 0.00 | 0.00 | 94 | 1021.7 |
| 20260506104951 | 49 | 37 | 0.0 | 0.0 | 0.00 | 0.00 | 0.00 | 94 | 1021.6 |
| 20260506104449 | 49 | 27 | 0.0 | 0.0 | 0.00 | 0.00 | 0.00 | 95 | 1021.7 |
| 20260506103947 | 49 | 27 | 0.0 | 0.0 | 0.00 | 0.00 | 0.00 | 94 | 1021.3 |
| 20260506103444 | 49 | 26 | 0.0 | 0.0 | 0.00 | 0.00 | 0.00 | 94 | 1021.5 |
| 20260506102940 | 49 | 27 | 0.9 | 0.9 | 0.00 | 0.00 | 0.00 | 94 | 1021.5 |
| 20260506102439 | 50 | 27 | 0.0 | 0.0 | 0.00 | 0.00 | 0.00 | 93 | 1021.5 |
| 20260506101936 | 50 | 27 | 0.0 | 0.0 | 0.00 | 0.00 | 0.00 | 93 | 1021.6 |
| 20260506101432 | 50 | 27 | 0.0 | 0.0 | 0.00 | 0.00 | 0.00 | 93 | 1021.5 |
| 20260506100929 | 50 | 26 | 0.0 | 0.0 | 0.00 | 0.00 | 0.00 | 93 | 1021.7 |
| 20260506100428 | 50 | 26 | 0.0 | 0.9 | 0.00 | 0.00 | 0.00 | 93 | 1021.5 |
| 20260506095925 | 50 | 26 | 0.0 | 1.7 | 0.00 | 0.00 | 0.00 | 94 | 1021.5 |
| 20260506095424 | 50 | 25 | 0.0 | 0.9 | 0.00 | 0.00 | 0.00 | 94 | 1021.4 |
| 20260506094919 | 50 | 26 | 0.9 | 1.7 | 0.00 | 0.00 | 0.00 | 94 | 1021.5 |
| 20260506094418 | 50 | 25 | 1.7 | 2.6 | 0.00 | 0.00 | 0.00 | 93 | 1021.5 |
| 20260506093915 | 50 | 28 | 0.0 | 0.9 | 0.00 | 0.00 | 0.00 | 93 | 1021.5 |
| 20260506093413 | 51 | 28 | 1.7 | 1.7 | 0.00 | 0.00 | 0.00 | 93 | 1021.7 |
| 20260506092911 | 51 | 28 | 0.9 | 0.9 | 0.00 | 0.00 | 0.00 | 93 | 1021.6 |
| 20260506092409 | 51 | 30 | 0.9 | 1.7 | 0.00 | 0.00 | 0.00 | 93 | 1021.4 |
| 20260506091905 | 51 | 25 | 0.9 | 1.7 | 0.00 | 0.00 | 0.00 | 93 | 1021.4 |
| 20260506091403 | 51 | 23 | 0.9 | 4.3 | 0.00 | 0.00 | 0.00 | 93 | 1021.5 |
| 20260506090900 | 51 | 20 | 2.6 | 4.3 | 0.00 | 0.00 | 0.00 | 93 | 1021.7 |
| 20260506090358 | 51 | 16 | 2.6 | 2.6 | 0.00 | 0.00 | 0.00 | 92 | 1021.7 |
| 20260506085854 | 51 | 28 | 0.9 | 1.7 | 0.00 | 0.00 | 0.00 | 92 | 1021.9 |
| 20260506085350 | 51 | 27 | 1.7 | 2.6 | 0.00 | 0.00 | 0.00 | 93 | 1021.7 |
| 20260506084847 | 51 | 24 | 1.7 | 2.6 | 0.00 | 0.00 | 0.00 | 92 | 1021.9 |
| 20260506084344 | 51 | 23 | 1.7 | 2.6 | 0.00 | 0.00 | 0.00 | 93 | 1021.8 |
| 20260506083840 | 51 | 22 | 1.7 | 2.6 | 0.00 | 0.00 | 0.00 | 93 | 1021.9 |
| 20260506083338 | 51 | 25 | 1.7 | 1.7 | 0.00 | 0.00 | 0.00 | 93 | 1021.8 |
| 20260506082835 | 51 | 25 | 0.0 | 0.0 | 0.00 | 0.00 | 0.00 | 92 | 1022.0 |
| 20260506082332 | 51 | 25 | 0.0 | 0.0 | 0.00 | 0.00 | 0.00 | 93 | 1021.9 |
| 20260506081827 | 52 | 25 | 0.0 | 0.0 | 0.00 | 0.00 | 0.00 | 93 | 1021.9 |
| 20260506081326 | 51 | 25 | 0.0 | 0.0 | 0.00 | 0.00 | 0.00 | 93 | 1021.8 |
| 20260506080823 | 52 | 25 | 0.0 | 0.9 | 0.00 | 0.00 | 0.00 | 93 | 1021.9 |
| 20260506080319 | 52 | 25 | 0.0 | 0.0 | 0.00 | 0.00 | 0.00 | 92 | 1022.0 |
| 20260506073304 | 52 | 36 | 0.9 | 2.6 | 0.00 | 0.00 | 0.00 | 92 | 1021.7 |
| 20260506072800 | 52 | 36 | 0.9 | 1.7 | 0.00 | 0.00 | 0.00 | 92 | 1021.8 |
| 20260506072258 | 52 | 36 | 0.9 | 1.7 | 0.00 | 0.00 | 0.00 | 92 | 1021.8 |
| 20260506071755 | 52 | 36 | 1.7 | 1.7 | 0.00 | 0.00 | 0.00 | 92 | 1021.6 |
| 20260506071254 | 52 | 36 | 1.7 | 1.7 | 0.00 | 0.00 | 0.00 | 92 | 1021.7 |
| 20260506070750 | 52 | 38 | 0.9 | 1.7 | 0.00 | 0.00 | 0.00 | 91 | 1021.8 |
| 20260506070247 | 52 | 38 | 0.0 | 0.0 | 0.00 | 0.00 | 0.00 | 91 | 1021.6 |
| 20260506062224 | 54 | 32 | 0.0 | 1.7 | 0.00 | 0.00 | 0.00 | 88 | 1021.5 |
| 20260506061720 | 54 | 15 | 1.7 | 2.6 | 0.00 | 0.00 | 0.00 | 89 | 1021.1 |
| 20260506061218 | 54 | 26 | 0.9 | 2.6 | 0.00 | 0.00 | 0.00 | 89 | 1021.3 |
| 20260506060716 | 54 | 49 | 0.0 | 0.0 | 0.00 | 0.00 | 0.00 | 88 | 1021.3 |
| 20260506060213 | 54 | 50 | 0.0 | 0.9 | 0.00 | 0.00 | 0.00 | 88 | 1021.3 |
| 20260506051145 | 55 | 30 | 1.7 | 1.7 | 0.00 | 0.00 | 0.00 | 86 | 1021.0 |
| 20260506050643 | 55 | 346 | 1.7 | 1.7 | 0.00 | 0.00 | 0.00 | 87 | 1021.0 |
| 20260506050140 | 55 | 11 | 1.7 | 2.6 | 0.00 | 0.00 | 0.00 | 87 | 1020.8 |
| 20260506045133 | 55 | 38 | 0.0 | 0.9 | 0.00 | 0.00 | 0.00 | 86 | 1020.9 |
| 20260506044631 | 55 | 38 | 0.0 | 0.0 | 0.00 | 0.00 | 0.00 | 85 | 1020.9 |
| 20260506044128 | 55 | 63 | 0.0 | 0.0 | 0.00 | 0.00 | 0.00 | 84 | 1020.9 |
| 20260506043625 | 55 | 43 | 0.0 | 0.9 | 0.00 | 0.00 | 0.00 | 84 | 1020.7 |
| 20260506043123 | 56 | 60 | 0.9 | 0.9 | 0.00 | 0.00 | 0.00 | 83 | 1020.7 |
| 20260506042622 | 55 | 49 | 0.9 | 1.7 | 0.00 | 0.00 | 0.00 | 84 | 1020.6 |
| 20260506042119 | 56 | 32 | 0.0 | 2.6 | 0.00 | 0.00 | 0.00 | 83 | 1020.6 |
| 20260506041618 | 56 | 59 | 0.9 | 0.9 | 0.00 | 0.00 | 0.00 | 83 | 1020.6 |
| 20260506041114 | 56 | 40 | 0.0 | 0.9 | 0.00 | 0.00 | 0.00 | 83 | 1020.3 |
| 20260506040612 | 56 | 36 | 0.9 | 0.9 | 0.00 | 0.00 | 0.00 | 82 | 1020.6 |
| 20260506040108 | 56 | 299 | 0.9 | 5.2 | 0.00 | 0.00 | 0.00 | 82 | 1020.2 |
| 20260506035605 | 56 | 31 | 0.0 | 1.7 | 0.00 | 0.00 | 0.00 | 81 | 1020.3 |
| 20260506035102 | 56 | 45 | 0.0 | 0.9 | 0.00 | 0.00 | 0.00 | 80 | 1020.3 |
| 20260506034559 | 56 | 61 | 0.0 | 0.9 | 0.00 | 0.00 | 0.00 | 80 | 1019.9 |
| 20260506034056 | 56 | 13 | 0.9 | 4.3 | 0.00 | 0.00 | 0.00 | 80 | 1019.9 |
| 20260506033553 | 57 | 104 | 0.0 | 2.6 | 0.00 | 0.00 | 0.00 | 79 | 1020.1 |
| 20260506033050 | 57 | 292 | 0.9 | 6.1 | 0.00 | 0.00 | 0.00 | 79 | 1020.0 |
| 20260506032547 | 57 | 332 | 0.0 | 0.9 | 0.00 | 0.00 | 0.00 | 78 | 1019.7 |
| 20260506032044 | 57 | 4 | 2.6 | 4.3 | 0.00 | 0.00 | 0.00 | 78 | 1019.7 |
| 20260506031542 | 57 | 268 | 0.9 | 1.7 | 0.00 | 0.00 | 0.00 | 78 | 1019.5 |
| 20260506031038 | 57 | 131 | 0.0 | 0.9 | 0.00 | 0.00 | 0.00 | 77 | 1019.5 |
| 20260506030537 | 57 | 277 | 1.7 | 1.7 | 0.00 | 0.00 | 0.00 | 77 | 1019.7 |
| 20260506030034 | 57 | 316 | 0.9 | 1.7 | 0.00 | 0.00 | 0.00 | 76 | 1019.4 |
| 20260506025531 | 58 | 8 | 1.7 | 6.1 | 0.00 | 0.00 | 0.00 | 75 | 1019.3 |
| 20260506025027 | 58 | 137 | 0.0 | 0.9 | 0.00 | 0.00 | 0.00 | 74 | 1019.3 |
| 20260506024524 | 58 | 41 | 0.0 | 2.6 | 0.00 | 0.00 | 0.00 | 74 | 1019.2 |
| 20260506024020 | 58 | 273 | 2.6 | 4.3 | 0.00 | 0.00 | 0.00 | 73 | 1019.0 |
| 20260506023516 | 59 | 44 | 1.7 | 9.6 | 0.00 | 0.00 | 0.00 | 72 | 1019.0 |
| 20260506023014 | 59 | 19 | 2.6 | 6.1 | 0.00 | 0.00 | 0.00 | 71 | 1019.1 |
| 20260506022511 | 59 | 343 | 2.6 | 4.3 | 0.00 | 0.00 | 0.00 | 71 | 1018.9 |
| 20260506022008 | 59 | 39 | 0.0 | 2.6 | 0.00 | 0.00 | 0.00 | 70 | 1019.1 |
| 20260506021506 | 60 | 11 | 3.5 | 7.8 | 0.00 | 0.00 | 0.00 | 68 | 1018.9 |
| 20260506021003 | 60 | 4 | 3.5 | 5.2 | 0.00 | 0.00 | 0.00 | 66 | 1019.0 |
| 20260506020501 | 60 | 50 | 0.0 | 0.9 | 0.00 | 0.00 | 0.00 | 65 | 1018.8 |
| 20260506015957 | 60 | 4 | 2.6 | 5.2 | 0.00 | 0.00 | 0.00 | 63 | 1018.8 |
| 20260506015455 | 61 | 88 | 0.9 | 5.2 | 0.00 | 0.00 | 0.00 | 62 | 1018.8 |
| 20260506014952 | 61 | 24 | 5.2 | 7.0 | 0.00 | 0.00 | 0.00 | 60 | 1018.6 |
| 20260506014449 | 62 | 14 | 3.5 | 7.0 | 0.00 | 0.00 | 0.00 | 59 | 1018.6 |
| 20260506013945 | 62 | 68 | 0.0 | 7.8 | 0.00 | 0.00 | 0.00 | 58 | 1018.7 |
| 20260506013443 | 62 | 44 | 1.7 | 11.3 | 0.00 | 0.00 | 0.00 | 58 | 1018.6 |
| 20260506012939 | 63 | 58 | 0.9 | 2.6 | 0.00 | 0.00 | 0.00 | 57 | 1018.6 |
| 20260506012436 | 64 | 3 | 2.6 | 6.1 | 0.00 | 0.00 | 0.00 | 57 | 1018.6 |
| 20260506011933 | 64 | 59 | 0.0 | 5.2 | 0.00 | 0.00 | 0.00 | 57 | 1018.7 |
| 20260506011430 | 64 | 81 | 0.0 | 5.2 | 0.00 | 0.00 | 0.00 | 54 | 1018.6 |
| 20260506010927 | 65 | 56 | 0.9 | 5.2 | 0.00 | 0.00 | 0.00 | 54 | 1018.6 |
| 20260506010426 | 66 | 65 | 0.9 | 4.3 | 0.00 | 0.00 | 0.00 | 54 | 1018.7 |
| 20260506005921 | 67 | 29 | 0.9 | 5.2 | 0.00 | 0.00 | 0.00 | 53 | 1018.6 |
| 20260506005420 | 67 | 165 | 0.9 | 1.7 | 0.00 | 0.00 | 0.00 | 53 | 1018.6 |
| 20260506004914 | 66 | 30 | 1.7 | 2.6 | 0.00 | 0.00 | 0.00 | 55 | 1018.5 |
| 20260506004413 | 67 | 238 | 4.3 | 7.8 | 0.00 | 0.00 | 0.00 | 54 | 1018.6 |
| 20260506003908 | 67 | 40 | 0.0 | 2.6 | 0.00 | 0.00 | 0.00 | 52 | 1018.5 |
| 20260506003405 | 67 | 147 | 0.0 | 4.3 | 0.00 | 0.00 | 0.00 | 54 | 1018.5 |
| 20260506002902 | 68 | 16 | 0.9 | 5.2 | 0.00 | 0.00 | 0.00 | 52 | 1018.5 |
| 20260506002358 | 67 | 88 | 0.0 | 4.3 | 0.00 | 0.00 | 0.00 | 55 | 1018.6 |
| 20260506001853 | 67 | 152 | 3.5 | 4.3 | 0.00 | 0.00 | 0.00 | 57 | 1018.6 |
| 20260506001350 | 68 | 234 | 4.3 | 6.1 | 0.00 | 0.00 | 0.00 | 58 | 1018.4 |
| 20260506000847 | 67 | 115 | 0.9 | 1.7 | 0.00 | 0.00 | 0.00 | 58 | 1018.5 |
| 20260506000346 | 66 | 166 | 2.6 | 5.2 | 0.00 | 0.00 | 0.00 | 60 | 1018.3 |
| 20260505235842 | 66 | 272 | 4.3 | 7.0 | 0.00 | 0.00 | 0.00 | 61 | 1018.3 |
| 20260505235339 | 67 | 194 | 0.9 | 1.7 | 0.00 | 0.00 | 0.00 | 59 | 1018.5 |
| 20260505234836 | 67 | 245 | 2.6 | 5.2 | 0.00 | 0.00 | 0.00 | 59 | 1018.3 |
| 20260505234334 | 66 | 200 | 1.7 | 1.7 | 0.00 | 0.00 | 0.00 | 59 | 1018.3 |
| 20260505233831 | 68 | 0 | 0.9 | 6.1 | 0.00 | 0.00 | 0.00 | 59 | 1018.3 |
| 20260505233329 | 68 | 242 | 1.7 | 2.6 | 0.00 | 0.00 | 0.00 | 57 | 1018.3 |
| 20260505232826 | 66 | 234 | 2.6 | 7.0 | 0.00 | 0.00 | 0.00 | 60 | 1018.5 |
| 20260505232323 | 66 | 132 | 0.9 | 4.3 | 0.00 | 0.00 | 0.00 | 60 | 1018.5 |
| 20260505231820 | 65 | 218 | 1.7 | 6.1 | 0.00 | 0.00 | 0.00 | 62 | 1018.6 |
| 20260505231318 | 65 | 242 | 3.5 | 7.0 | 0.00 | 0.00 | 0.00 | 63 | 1018.3 |
| 20260505230816 | 65 | 225 | 4.3 | 7.8 | 0.00 | 0.00 | 0.00 | 62 | 1018.2 |
| 20260505230313 | 66 | 216 | 4.3 | 6.1 | 0.00 | 0.00 | 0.00 | 60 | 1018.4 |
| 20260505225809 | 65 | 264 | 3.5 | 7.8 | 0.00 | 0.00 | 0.00 | 62 | 1018.7 |
| 20260505225306 | 65 | 207 | 4.3 | 11.3 | 0.00 | 0.00 | 0.00 | 62 | 1018.7 |
| 20260505224801 | 65 | 239 | 6.1 | 11.3 | 0.00 | 0.00 | 0.00 | 61 | 1018.4 |
| 20260505224259 | 65 | 185 | 7.0 | 8.7 | 0.00 | 0.00 | 0.00 | 61 | 1018.5 |
| 20260505223757 | 65 | 189 | 4.3 | 8.7 | 0.00 | 0.00 | 0.00 | 60 | 1018.7 |
| 20260505223253 | 65 | 242 | 6.1 | 8.7 | 0.00 | 0.00 | 0.00 | 60 | 1018.7 |
| 20260505222749 | 65 | 219 | 4.3 | 8.7 | 0.00 | 0.00 | 0.00 | 59 | 1018.9 |
| 20260505222246 | 66 | 207 | 7.0 | 9.6 | 0.00 | 0.00 | 0.00 | 58 | 1018.8 |
| 20260505221743 | 65 | 275 | 7.0 | 8.7 | 0.00 | 0.00 | 0.00 | 60 | 1019.0 |